Find Starlink 11476

NORAD ID: 62228 Int'l Des: 2024-231 Owner: SPXS Country: US Constellation: starlink operational
LEOCIRCULAR

リアルタイム位置

3D地球を読み込み中...

Starlink 11476について

説明を読み込み中...

次回通過

Passes for default location (London). Set your location on the main map for personalized predictions.

高度履歴

Loading altitude history...

軌道要素

1 62228U 24231L 26126.48665814 .00179292 00000-0 14533-2 0 9999
2 62228 53.1563 176.0166 0000690 105.2455 254.8639 15.69704197 82500
Epoch: May 6, 2026 • Age: 25 hours

現在のステータス

高度 361.3 km
速度 7.69 km/s
衛星直下点 -9.62°S, 61.4°W
打ち上げ日 Dec 5, 2024
運用期間 1.4 years
タイプ internet

技術仕様

分類 Payload
質量 960.00 kg
乾燥質量 910.00 kg
総質量 960.00 kg
長さ 0.30 m
直径 4.10 m
スパン 29.00 m
形状 Box + pan
製造者 SPXS
バスタイプ Starlink V2MD
フェーズステータス In Orbit
所有者/国 SPXS/US

Most Searched